Location: Azul
(36.7830°S, 59.8500°W)
Time: 02:24:44
(UTC-03:00)

BEESAT - Visible Passes

Search period start: 23 October 2021 00:00
Search period end: 02 November 2021 00:00
Orbit: 699 x 709 km, 98.6° (Epoch: 22 October)

Date Brightness Start Highest point End Pass type
(mag) Time Alt. Az. Time Alt. Az. Time Alt. Az.
23 Oct ? 19:48:49 10° NNE 19:53:37 89° ESE 19:58:31 10° SSW visible
24 Oct ? 20:32:38 10° NNW 20:36:55 32° W 20:41:14 10° SW visible
25 Oct ? 21:19:09 10° WNW 21:20:28 11° W 21:21:47 10° WSW visible
26 Oct ? 20:21:00 10° N 20:25:32 42° W 20:30:09 10° SSW visible
27 Oct ? 21:06:16 10° NW 21:09:01 15° W 21:11:47 10° WSW visible
28 Oct ? 20:09:27 10° N 20:14:11 57° W 20:18:58 10° SSW visible
29 Oct ? 20:54:05 10° NW 20:57:35 20° W 21:01:08 10° SW visible
30 Oct ? 19:58:02 10° N 20:02:50 76° WNW 20:07:43 10° SSW visible
31 Oct ? 20:42:09 10° NNW 20:46:10 26° W 20:50:15 10° SW visible
